Find Starlink 34136

NORAD ID: 64112 Int'l Des: 2025-110 Owner: SPXS Country: US Constellation: starlink operational
LEOCIRCULAR

リアルタイム位置

3D地球を読み込み中...

Starlink 34136について

説明を読み込み中...

次回通過

Passes for default location (London). Set your location on the main map for personalized predictions.

高度履歴

Loading altitude history...

軌道要素

1 64112U 25110S 26134.25331648 .00006996 00000-0 23694-3 0 9998
2 64112 53.1599 82.0041 0001360 84.4729 275.6427 15.31708898 55921
Epoch: May 14, 2026 • Age: 7 hours

現在のステータス

高度 471.6 km
速度 7.63 km/s
衛星直下点 0.41°N, 168.81°W
打ち上げ日 May 23, 2025
運用期間 0.9 years
タイプ internet

技術仕様

分類 Payload
質量 575.00 kg
乾燥質量 530.00 kg
総質量 575.00 kg
長さ 0.30 m
直径 4.10 m
スパン 29.00 m
形状 Box + pan
製造者 SPXS
バスタイプ Starlink V2MO
フェーズステータス In Orbit
所有者/国 SPXS/US

Most Searched